| time (UTC) | temp C | wind direction | speed KPH | gust KPH | rain 1hr cm | rain 24hr cm | rain mn cm | humidity % | barometer mb |
| 20260510141313 | 19 | 90 | 4.8 | 20.9 | 0.00 | 0.00 | 0.00 | 41 | 1007.9 |
| 20260510140313 | 19 | 90 | 6.4 | 16.1 | 0.00 | 0.00 | 0.00 | 44 | 1008.1 |
| 20260510135313 | 19 | 180 | 0.0 | 17.7 | 0.00 | 0.00 | 0.00 | 42 | 1008.1 |
| 20260510134313 | 19 | 0 | 0.0 | 17.7 | 0.00 | 0.00 | 0.00 | 41 | 1008.2 |
| 20260510133313 | 20 | 45 | 4.8 | 14.5 | 0.00 | 0.00 | 0.00 | 41 | 1008.7 |
| 20260510132313 | 20 | 22 | 6.4 | 14.5 | 0.00 | 0.00 | 0.00 | 42 | 1008.7 |
| 20260510131312 | 19 | 90 | 6.4 | 20.9 | 0.00 | 0.00 | 0.00 | 42 | 1008.8 |
| 20260510130313 | 19 | 22 | 3.2 | 12.9 | 0.00 | 0.00 | 0.00 | 41 | 1008.9 |
| 20260510125312 | 19 | 67 | 1.6 | 11.3 | 0.00 | 0.00 | 0.00 | 44 | 1009.1 |
| 20260510124313 | 18 | 45 | 4.8 | 11.3 | 0.00 | 0.00 | 0.00 | 41 | 1008.9 |
| 20260510122312 | 18 | 360 | 9.7 | 22.5 | 0.00 | 0.00 | 0.00 | 44 | 1009.3 |
| 20260510121312 | 18 | 0 | 0.0 | 4.8 | 0.00 | 0.00 | 0.00 | 48 | 1009.4 |
| 20260510120312 | 18 | 45 | 8.0 | 17.7 | 0.00 | 0.00 | 0.00 | 45 | 1009.6 |
| 20260510115311 | 18 | 67 | 4.8 | 17.7 | 0.00 | 0.00 | 0.00 | 48 | 1009.8 |
| 20260510114311 | 18 | 112 | 6.4 | 17.7 | 0.00 | 0.00 | 0.00 | 44 | 1009.9 |
| 20260510113311 | 18 | 67 | 6.4 | 14.5 | 0.00 | 0.00 | 0.00 | 47 | 1010.2 |
| 20260510111311 | 18 | 22 | 0.0 | 6.4 | 0.00 | 0.00 | 0.00 | 48 | 1010.6 |
| 20260510110311 | 17 | 202 | 0.0 | 16.1 | 0.00 | 0.00 | 0.00 | 48 | 1010.4 |
| 20260510105310 | 17 | 112 | 1.6 | 14.5 | 0.00 | 0.00 | 0.00 | 46 | 1010.6 |
| 20260510103310 | 17 | 180 | 1.6 | 9.7 | 0.00 | 0.00 | 0.00 | 45 | 1010.7 |
| 20260510102310 | 17 | 45 | 9.7 | 19.3 | 0.00 | 0.00 | 0.00 | 48 | 1010.7 |
| 20260510101310 | 17 | 22 | 9.7 | 17.7 | 0.00 | 0.00 | 0.00 | 51 | 1011.4 |
| 20260510100310 | 17 | 45 | 6.4 | 14.5 | 0.00 | 0.00 | 0.00 | 47 | 1011.2 |
| 20260510095310 | 17 | 157 | 1.6 | 11.3 | 0.00 | 0.00 | 0.00 | 48 | 1011.2 |
| 20260510093310 | 17 | 45 | 3.2 | 17.7 | 0.00 | 0.00 | 0.00 | 46 | 1011.4 |
| 20260510092309 | 17 | 45 | 11.3 | 20.9 | 0.00 | 0.00 | 0.00 | 48 | 1011.4 |
| 20260510091313 | 16 | 22 | 11.3 | 22.5 | 0.00 | 0.00 | 0.00 | 50 | 1011.4 |
| 20260510090313 | 16 | 67 | 1.6 | 20.9 | 0.00 | 0.00 | 0.00 | 51 | 1011.6 |
| 20260510085313 | 16 | 22 | 14.5 | 22.5 | 0.00 | 0.00 | 0.00 | 52 | 1011.6 |
| 20260510083313 | 16 | 22 | 9.7 | 22.5 | 0.00 | 0.00 | 0.00 | 51 | 1011.4 |
| 20260510082313 | 16 | 22 | 16.1 | 20.9 | 0.00 | 0.00 | 0.00 | 53 | 1011.4 |
| 20260510081313 | 15 | 45 | 8.0 | 22.5 | 0.00 | 0.00 | 0.00 | 52 | 1011.7 |
| 20260510080313 | 15 | 67 | 11.3 | 24.1 | 0.00 | 0.00 | 0.00 | 57 | 1011.7 |
| 20260510075312 | 15 | 45 | 6.4 | 32.2 | 0.00 | 0.00 | 0.00 | 56 | 1011.7 |
| 20260510074312 | 15 | 67 | 11.3 | 25.7 | 0.00 | 0.00 | 0.00 | 57 | 1011.7 |
| 20260510073312 | 14 | 67 | 12.9 | 22.5 | 0.00 | 0.00 | 0.00 | 57 | 1011.8 |
| 20260510072312 | 15 | 22 | 8.0 | 19.3 | 0.00 | 0.00 | 0.00 | 57 | 1011.8 |
| 20260510071312 | 14 | 360 | 8.0 | 14.5 | 0.00 | 0.00 | 0.00 | 56 | 1011.7 |
| 20260510065311 | 13 | 202 | 3.2 | 6.4 | 0.00 | 0.00 | 0.00 | 70 | 1011.8 |
| 20260510064311 | 11 | 180 | 0.0 | 8.0 | 0.00 | 0.00 | 0.00 | 75 | 1011.5 |
| 20260510063311 | 11 | 202 | 6.4 | 9.7 | 0.00 | 0.00 | 0.00 | 76 | 1011.5 |
| 20260510062311 | 11 | 202 | 4.8 | 11.3 | 0.00 | 0.00 | 0.00 | 74 | 1011.9 |
| 20260510055310 | 11 | 0 | 0.0 | 1.6 | 0.00 | 0.00 | 0.00 | 72 | 1011.8 |
| 20260510054310 | 10 | 0 | 0.0 | 0.0 | 0.00 | 0.00 | 0.00 | 75 | 1011.9 |
| 20260510053310 | 10 | 0 | 0.0 | 0.0 | 0.00 | 0.00 | 0.00 | 76 | 1011.9 |
| 20260510052310 | 8 | 0 | 0.0 | 3.2 | 0.00 | 0.00 | 0.00 | 83 | 1011.5 |
| 20260510051310 | 7 | 0 | 0.0 | 6.4 | 0.00 | 0.00 | 0.00 | 89 | 1011.5 |
| 20260510050310 | 6 | 45 | 3.2 | 6.4 | 0.00 | 0.00 | 0.00 | 89 | 1011.5 |
| 20260510044310 | 6 | 0 | 0.0 | 0.0 | 0.00 | 0.00 | 0.00 | 89 | 1011.5 |
| 20260510043310 | 6 | 45 | 4.8 | 6.4 | 0.00 | 0.00 | 0.00 | 89 | 1011.6 |
| 20260510042310 | 6 | 0 | 0.0 | 8.0 | 0.00 | 0.00 | 0.00 | 89 | 1011.6 |
| 20260510041309 | 6 | 45 | 8.0 | 9.7 | 0.00 | 0.00 | 0.00 | 89 | 1011.6 |
| 20260510040309 | 6 | 45 | 8.0 | 9.7 | 0.00 | 0.00 | 0.00 | 87 | 1011.7 |
| 20260510035309 | 6 | 45 | 8.0 | 9.7 | 0.00 | 0.00 | 0.00 | 86 | 1011.7 |
| 20260510034314 | 6 | 22 | 6.4 | 11.3 | 0.00 | 0.00 | 0.00 | 86 | 1012.1 |
| 20260510033314 | 6 | 45 | 6.4 | 9.7 | 0.00 | 0.00 | 0.00 | 89 | 1012.1 |
| 20260510031313 | 6 | 45 | 6.4 | 8.0 | 0.00 | 0.00 | 0.00 | 88 | 1011.8 |
| 20260510025313 | 6 | 45 | 6.4 | 9.7 | 0.00 | 0.00 | 0.00 | 87 | 1012.1 |
| 20260510024313 | 6 | 45 | 6.4 | 9.7 | 0.00 | 0.00 | 0.00 | 87 | 1012.3 |
| 20260510021313 | 6 | 22 | 6.4 | 8.0 | 0.00 | 0.00 | 0.00 | 88 | 1012.4 |
| 20260510015312 | 6 | 45 | 6.4 | 8.0 | 0.00 | 0.00 | 0.00 | 88 | 1012.5 |
| 20260510014312 | 6 | 45 | 6.4 | 8.0 | 0.00 | 0.00 | 0.00 | 87 | 1012.7 |
| 20260510013312 | 6 | 45 | 4.8 | 8.0 | 0.00 | 0.00 | 0.00 | 86 | 1012.7 |
| 20260510012312 | 7 | 22 | 4.8 | 8.0 | 0.00 | 0.00 | 0.00 | 85 | 1012.9 |
| 20260510011312 | 7 | 0 | 0.0 | 0.0 | 0.00 | 0.00 | 0.00 | 85 | 1012.7 |
| 20260510004311 | 8 | 22 | 8.0 | 11.3 | 0.00 | 0.00 | 0.00 | 82 | 1013.3 |
| 20260510003311 | 7 | 45 | 6.4 | 8.0 | 0.00 | 0.00 | 0.00 | 84 | 1013.6 |
| 20260510001311 | 8 | 45 | 6.4 | 8.0 | 0.00 | 0.00 | 0.00 | 82 | 1013.8 |
| 20260510000311 | 8 | 0 | 0.0 | 4.8 | 0.00 | 0.00 | 0.00 | 80 | 1013.9 |
| 20260509235311 | 9 | 22 | 6.4 | 9.7 | 0.00 | 0.00 | 0.00 | 78 | 1013.9 |
| 20260509234311 | 9 | 22 | 9.7 | 12.9 | 0.00 | 0.00 | 0.00 | 78 | 1014.4 |
| 20260509233311 | 9 | 22 | 6.4 | 11.3 | 0.00 | 0.00 | 0.00 | 75 | 1014.2 |
| 20260509232311 | 10 | 22 | 8.0 | 12.9 | 0.00 | 0.00 | 0.00 | 74 | 1014.4 |
| 20260509231310 | 10 | 45 | 11.3 | 17.7 | 0.00 | 0.00 | 0.00 | 72 | 1014.2 |
| 20260509230310 | 10 | 22 | 8.0 | 14.5 | 0.00 | 0.00 | 0.00 | 73 | 1014.7 |
| 20260509225310 | 10 | 45 | 9.7 | 14.5 | 0.00 | 0.00 | 0.00 | 72 | 1014.5 |
| 20260509224310 | 10 | 45 | 12.9 | 17.7 | 0.00 | 0.00 | 0.00 | 72 | 1014.7 |
| 20260509223310 | 10 | 45 | 12.9 | 17.7 | 0.00 | 0.00 | 0.00 | 71 | 1014.7 |
| 20260509222310 | 10 | 45 | 11.3 | 19.3 | 0.00 | 0.00 | 0.00 | 70 | 1014.7 |
| 20260509221309 | 11 | 45 | 11.3 | 19.3 | 0.00 | 0.00 | 0.00 | 70 | 1014.8 |
| 20260509214309 | 11 | 67 | 11.3 | 22.5 | 0.00 | 0.00 | 0.00 | 67 | 1014.8 |
| 20260509213312 | 11 | 45 | 12.9 | 24.1 | 0.00 | 0.00 | 0.00 | 67 | 1014.9 |
| 20260509212314 | 11 | 67 | 12.9 | 20.9 | 0.00 | 0.00 | 0.00 | 66 | 1014.9 |
| 20260509211314 | 11 | 67 | 9.7 | 20.9 | 0.00 | 0.00 | 0.00 | 66 | 1014.9 |
| 20260509210314 | 11 | 45 | 9.7 | 20.9 | 0.00 | 0.00 | 0.00 | 66 | 1015.0 |
| 20260509205314 | 12 | 67 | 9.7 | 19.3 | 0.00 | 0.00 | 0.00 | 65 | 1015.1 |
| 20260509204314 | 12 | 45 | 11.3 | 17.7 | 0.00 | 0.00 | 0.00 | 65 | 1015.2 |
| 20260509202313 | 12 | 45 | 8.0 | 11.3 | 0.00 | 0.00 | 0.00 | 65 | 1015.2 |
| 20260509201313 | 12 | 45 | 8.0 | 16.1 | 0.00 | 0.00 | 0.00 | 65 | 1015.0 |
| 20260509200313 | 12 | 45 | 9.7 | 20.9 | 0.00 | 0.00 | 0.00 | 64 | 1015.0 |
| 20260509195313 | 12 | 45 | 12.9 | 19.3 | 0.00 | 0.00 | 0.00 | 65 | 1014.8 |
| 20260509194313 | 12 | 45 | 9.7 | 17.7 | 0.00 | 0.00 | 0.00 | 66 | 1014.8 |
| 20260509193313 | 12 | 67 | 8.0 | 20.9 | 0.00 | 0.00 | 0.00 | 66 | 1014.7 |
| 20260509192312 | 12 | 45 | 11.3 | 19.3 | 0.00 | 0.00 | 0.00 | 66 | 1014.7 |
| 20260509191312 | 12 | 45 | 6.4 | 14.5 | 0.00 | 0.00 | 0.00 | 65 | 1014.7 |
| 20260509190312 | 13 | 67 | 11.3 | 17.7 | 0.00 | 0.00 | 0.00 | 64 | 1014.8 |
| 20260509185312 | 13 | 45 | 11.3 | 14.5 | 0.00 | 0.00 | 0.00 | 63 | 1014.6 |
| 20260509184313 | 13 | 67 | 4.8 | 16.1 | 0.00 | 0.00 | 0.00 | 62 | 1014.4 |
| 20260509183312 | 13 | 67 | 4.8 | 16.1 | 0.00 | 0.00 | 0.00 | 62 | 1014.2 |
| 20260509181311 | 13 | 45 | 9.7 | 14.5 | 0.00 | 0.00 | 0.00 | 64 | 1013.9 |
| 20260509175311 | 13 | 67 | 6.4 | 11.3 | 0.00 | 0.00 | 0.00 | 63 | 1013.9 |
| 20260509172311 | 13 | 67 | 4.8 | 11.3 | 0.00 | 0.00 | 0.00 | 63 | 1013.7 |
| 20260509171311 | 14 | 45 | 6.4 | 11.3 | 0.00 | 0.00 | 0.00 | 62 | 1013.6 |
| 20260509170310 | 14 | 67 | 4.8 | 12.9 | 0.00 | 0.00 | 0.00 | 64 | 1013.5 |
| 20260509165310 | 14 | 67 | 6.4 | 12.9 | 0.00 | 0.00 | 0.00 | 63 | 1013.5 |
| 20260509164310 | 14 | 45 | 6.4 | 12.9 | 0.00 | 0.00 | 0.00 | 64 | 1013.7 |
| 20260509163311 | 14 | 45 | 6.4 | 14.5 | 0.00 | 0.00 | 0.00 | 62 | 1014.1 |
| 20260509162310 | 15 | 67 | 8.0 | 14.5 | 0.00 | 0.00 | 0.00 | 60 | 1014.1 |
| 20260509161310 | 15 | 22 | 6.4 | 16.1 | 0.00 | 0.00 | 0.00 | 61 | 1014.1 |
| 20260509160310 | 15 | 22 | 6.4 | 16.1 | 0.00 | 0.00 | 0.00 | 62 | 1014.1 |
| 20260509155309 | 15 | 45 | 0.0 | 11.3 | 0.00 | 0.00 | 0.00 | 63 | 1014.1 |
| 20260509154309 | 15 | 67 | 4.8 | 12.9 | 0.00 | 0.00 | 0.00 | 62 | 1014.4 |
| 20260509153309 | 15 | 90 | 3.2 | 11.3 | 0.00 | 0.00 | 0.00 | 65 | 1014.5 |
| 20260509152309 | 14 | 90 | 1.6 | 8.0 | 0.00 | 0.00 | 0.00 | 65 | 1014.3 |
| 20260509145314 | 15 | 90 | 4.8 | 11.3 | 0.00 | 0.00 | 0.00 | 65 | 1014.6 |
| 20260509144313 | 15 | 22 | 3.2 | 12.9 | 0.00 | 0.00 | 0.00 | 62 | 1014.4 |
| 20260509142313 | 15 | 0 | 0.0 | 1.6 | 0.00 | 0.00 | 0.00 | 58 | 1014.4 |